Flag for Austria

Past Weather in Zwettl, Lower Austria, Austria — Yesterday and Last 2 Weeks

Now
79 °F

Warm.


Feels Like: 80 °F
Forecast: 87 / 59 °F
Wind: 6 mph from South

Location: Retz

Current Time: Jul 9, 2020 at 3:31:02 pm

Latest Report: Jul 9, 2020 at 3:00 pm


Visibility: N/A

Pressure: 29.98 "Hg (28.24 "Hg at 524m altitude)

Humidity: 47%

Dew Point: 57 °F

Location of ZwettlLocation

Past Weather in Zwettl — Graph

°F

Zwettl Temperature Yesterday

Maximum temperature yesterday: 77 °F (at 4:00 pm)
Minimum temperature yesterday: 53 °F (at 6:00 am)
Average temperature yesterday: 65 °F

High & Low Weather Summary for the Past Weeks

 TemperatureHumidityPressure
High85 °F (Jun 28, 6:00 pm)97% (Jul 9, 3:00 am)30.19 "Hg (Jul 9, 3:00 am)
Low53 °F (Jul 8, 6:00 am)33% (Jul 4, 4:00 pm)29.75 "Hg (Jul 1, 6:00 pm)
Average69 °F63%29.96 "Hg
* Reported Jun 24 1:00 pm — Jul 9 1:00 pm, Zwettl. Weather by CustomWeather, © 2020

Note: Actual official high and low records may vary slightly from our data, if they occured in-between our weather recording intervals... More about our weather records

Zwettl Weather History for the Previous 24 Hours

Scroll right to see more
 ConditionsComfort  
Time TempWeatherWind HumidityBarometerVisibility
1:00 pm
Thu, Jul 9
72 °FMild.2 mph64%30.03 "HgN/A
12:00 pm67 °FMild.2 mph72%30.06 "HgN/A
11:00 am65 °FMild.2 mph82%30.07 "HgN/A
10:00 am63 °FMild.No wind85%30.08 "HgN/A
9:00 am61 °FCool.1 mph92%30.08 "HgN/A
8:00 am59 °FOvercast.2 mph92%30.09 "Hg9 mi
7:00 am59 °FOvercast.1 mph95%30.07 "Hg8 mi
6:00 am58 °FCool.1 mph95%30.06 "HgN/A
5:00 am58 °FCool.1 mph95%30.06 "HgN/A
3:00 am58 °FFog.1 mph97%30.08 "HgN/A
2:00 am58 °FCool.2 mph92%30.09 "HgN/A
1:00 am59 °FCool.2 mph87%30.08 "HgN/A
12:00 am59 °FCool.1 mph85%30.08 "HgN/A
11:00 pm
Wed, Jul 8
59 °FCool.1 mph85%30.06 "HgN/A
10:00 pm60 °FCool.1 mph84%30.06 "HgN/A
9:00 pm61 °FCool.2 mph80%30.04 "HgN/A
8:00 pm62 °FOvercast.2 mph77%30.01 "Hg19 mi
7:00 pm68 °FFog.5 mph58%29.96 "HgN/A
6:00 pm75 °FMild.5 mph38%29.92 "HgN/A
5:00 pm76 °FMild.6 mph35%29.92 "HgN/A
4:00 pm77 °FPleasantly warm.5 mph33%29.92 "HgN/A
3:00 pm74 °FMild.3 mph38%29.95 "HgN/A
Weather by CustomWeather, © 2020

See weather overview